Station 46078 (LLNR 1187) - ALBATROSS BANK - 104NM South of Kodiak Is., AK Image indicating link to RSS feed of recent meteorological observations for station 46078


Conditions at 46078 as of
(11:10 pm AKDT on 05/21/2024)
0710 GMT on 05/22/2024:
     

Click on the graph icon in the table below to see a time series plot of the last five days of that observation.

5-day plot - Wave Height Wave Height (WVHT): 4.6 ft
5-day plot - Dominant Wave Period Dominant Wave Period (DPD): 10 sec
5-day plot - Average Wave Period Average Period (APD): 5.7 sec
5-day plot - Mean Wave Direction Mean Wave Direction (MWD):SSW ( 192 deg true )
5-day plot - Wind Chill Wind Chill (CHILL): 37.0 °F
5-day plot - Wind Speed at 10 Meters Wind Speed at 10 meters (WSPD10M): 13.6 kts
5-day plot - Wind Speed at 20 Meters Wind Speed at 20 meters (WSPD20M): 13.6 kts
Supplemental Measurements
Highest 1-minute Wind Speed
Time (AKDT)5-day plot - 1-Minute Wind Speed WSPD 5-day plot - 1-Minute Wind Direction WDIR
11:07 pm 11.7 kts-
Previous observations
TIME
(AKDT)
5-day plot - Wind Direction
WDIR
 
5-day plot - Wind Speed
WSPD
kts
5-day plot - Wind Gust
GST
kts
5-day plot - Wave Height
WVHT
ft
5-day plot - Dominant Wave Period
DPD
sec
5-day plot - Average Wave Period
APD
sec
5-day plot - Mean Wave Direction
MWD
 
5-day plot - Atmospheric Pressure
PRES
in
5-day plot - Pressure Tendency
PTDY
in
5-day plot - Air Temperature
ATMP
°F
5-day plot - Water Temperature
WTMP
°F
5-day plot - Dew Point
DEWP
°F
5-day plot - Salinity
SAL
psu
5-day plot - Visibility
VIS
nmi
5-day plot - Tide (above MLLW)
TIDE
ft
2024-05-21 11:00 pm SW 11.7 15.5----29.89+0.00 43.7 43.0 40.8---
2024-05-21 10:50 pm SW 9.7 13.6 4.9 96.0SSW29.90- 43.5 43.0 41.2---
2024-05-21 10:40 pm SW 9.7 13.6----29.89- 43.7 43.0 41.5---
2024-05-21 10:30 pmWSW 11.7 15.5----29.90- 43.7 43.0 41.2---
2024-05-21 10:20 pm SW 11.7 15.5 4.9 106.1 S29.90- 43.7 43.0 41.2---
2024-05-21 10:10 pm SW 9.7 13.6 4.9-6.1 S29.90- 43.7 43.0 41.4---
2024-05-21 10:00 pm SW 11.7 15.5----29.90+0.00 43.5 43.0 41.0---
2024-05-21 09:50 pm SW 11.7 13.6 4.9 106.2 S29.91- 43.5 43.0 41.2---
2024-05-21 09:40 pm SW 9.7 13.6----29.91- 43.5 43.0 41.2---
2024-05-21 09:30 pm SW 11.7 15.5----29.91- 43.3 43.0 40.8---
2024-05-21 09:20 pmWSW 11.7 17.5 4.9 156.1 S29.91- 43.3 43.0 41.0---
2024-05-21 09:10 pmWSW 11.7 15.5 4.9-6.1 S29.91- 43.3 43.0 41.4---
2024-05-21 09:00 pmWSW 9.7 13.6----29.91+0.02 43.2 43.0 41.0---
2024-05-21 08:50 pmWSW 11.7 15.5 4.6 96.2SSW29.91- 43.0 43.0 40.8---
2024-05-21 08:40 pmWSW 9.7 17.5 4.6-6.2SSW29.91- 42.6 43.0 40.8---
2024-05-21 08:30 pmWSW 9.7 15.5----29.91- 43.0 43.0 41.7---
2024-05-21 08:20 pmWSW 9.7 13.6 4.6 106.3 S29.90- 43.0 43.0 41.7---
2024-05-21 08:10 pmWSW 7.8 11.7 4.6-6.3 S29.90- 42.8 43.2 41.5---
2024-05-21 08:00 pmWSW 9.7 13.6----29.90+0.00 43.0 43.2 41.9---
2024-05-21 07:50 pm SW 7.8 11.7 4.6 96.3 S29.89- 42.8 43.2 41.7---
2024-05-21 07:40 pmWSW 7.8 11.7 4.6-6.3 S29.89- 42.8 43.2 41.7---
2024-05-21 07:30 pmWSW 7.8 11.7----29.89- 43.0 43.2 42.3---
2024-05-21 07:20 pmWSW 9.7 13.6 4.6 96.5SSW29.90- 43.0 43.2 42.3---
2024-05-21 07:10 pmWSW 7.8 11.7 4.6-6.5SSW29.90- 43.2 43.2 42.3---
2024-05-21 07:00 pmWSW 7.8 11.7----29.90+0.00 43.2 43.2 42.1---
2024-05-21 06:50 pmWSW 7.8 11.7 4.6 106.4 S29.90- 43.2 43.2 42.1---
2024-05-21 06:40 pmWSW 7.8 11.7 4.6-6.4 S29.89- 43.2 43.2 42.1---
2024-05-21 06:30 pm SW 7.8 11.7----29.89- 43.3 43.2 42.3---
2024-05-21 06:20 pmWSW 7.8 11.7 4.3 106.0 S29.90- 43.2 43.3 42.1---
2024-05-21 06:10 pm SW 7.8 11.7 4.3-6.0 S29.89- 43.2 43.3 42.1---
2024-05-21 06:00 pm SW 7.8 11.7----29.89-0.02 43.2- 42.1---
2024-05-21 05:50 pmWSW 7.8 11.7 4.6 106.2 S29.90- 43.2 43.3 42.1---
2024-05-21 05:40 pmWSW 9.7 13.6 4.6-6.2 S29.90- 43.0 43.3 41.9---
2024-05-21 05:30 pmWSW 9.7 11.7----29.89- 43.0 43.3 41.9---
2024-05-21 05:20 pmWSW 9.7 11.7 4.6 96.1 S29.90- 43.0 43.3 42.3---
2024-05-21 05:10 pmWSW 7.8 11.7 4.6-6.1 S29.90- 43.2 43.3 42.4---
2024-05-21 05:00 pmWSW 9.7 11.7----29.89-0.02 43.2 43.3 42.4---
2024-05-21 04:50 pmWSW 9.7 11.7 4.6 96.1 S29.89- 43.2 43.3 42.4---
2024-05-21 04:40 pmWSW 9.7 13.6 4.6-6.1 S29.90- 43.2 43.3 42.3---
2024-05-21 04:30 pmWSW 9.7 13.6----29.89- 43.3 43.3 42.3---
2024-05-21 04:20 pmWSW 9.7 13.6 4.6 106.2 S29.89- 43.2 43.3 42.1---
2024-05-21 04:10 pmWSW 11.7 13.6 4.6-6.2 S29.89- 43.2 43.3 42.1---
2024-05-21 04:00 pmWSW 11.7 15.5----29.89-0.02 43.2 43.3 42.1---
2024-05-21 03:50 pmWSW 11.7 15.5 4.6 105.9SSW29.90- 43.2 43.3 42.3---
2024-05-21 03:40 pmWSW 11.7 13.6----29.90- 43.3 43.3 42.6---
2024-05-21 03:10 pmWSW 9.7 13.6 4.6-6.0 S29.91- 43.3 43.3 43.0---
2024-05-21 03:00 pmWSW 9.7 13.6----29.91+0.00 43.3 43.2 43.0---
2024-05-21 02:50 pm SW 9.7 11.7 4.3 95.9SSW29.91- 43.5 43.2 43.2---
2024-05-21 02:40 pmWSW 9.7 11.7 4.3-5.9SSW29.91- 43.5 43.2 43.2---
2024-05-21 02:30 pmWSW 11.7 13.6----29.91- 43.3 43.2 43.2---
2024-05-21 02:20 pmWSW 9.7 13.6 4.3 105.8SSW29.92- 43.3 43.2 43.2---
2024-05-21 02:10 pmWSW 9.7 11.7 4.3-5.8SSW29.91- 43.5 43.2 43.3---
2024-05-21 02:00 pmWSW 9.7 13.6----29.92+0.03 43.5 43.2 43.3---
2024-05-21 01:50 pmWSW 11.7 13.6 4.6 116.0SSW29.92- 43.5 43.2 43.3---
2024-05-21 01:40 pmWSW 11.7 15.5 4.6-6.0SSW29.92- 43.5 43.2 43.3---
2024-05-21 01:30 pmWSW 11.7 15.5----29.92- 43.5 43.0 43.3---
2024-05-21 01:20 pm SW 9.7 13.6 4.6 165.9 SW29.91- 43.7 43.2 43.5---
2024-05-21 01:10 pm SW 9.7 13.6 4.6-5.9 SW29.91- 43.7 43.0 43.5---
2024-05-21 01:00 pm SW 9.7 13.6----29.91+0.00 43.7 43.0 43.5---
2024-05-21 12:50 pm SW 9.7 13.6 4.3 175.6SSE29.91- 43.7 43.0 43.5---
2024-05-21 12:40 pmSSW 9.7 13.6 4.3-5.6SSE29.91- 43.7 43.0 43.5---
2024-05-21 12:30 pm SW 11.7 13.6----29.91- 43.7 43.0 43.5---
2024-05-21 12:20 pm SW 11.7 13.6 4.6 105.7SSW29.91- 43.7 43.0 43.5---
2024-05-21 12:10 pm SW 11.7 15.5 4.6-5.7SSW29.91- 43.7 43.0 43.5---
2024-05-21 12:00 pm SW 11.7 15.5----29.91+0.00 43.7 43.0 43.5---
2024-05-21 11:50 amSSW 11.7 15.5 4.6 165.6SSW29.91- 43.7 43.0 43.5---
2024-05-21 11:40 am SW 13.6 17.5 4.6-5.6SSW29.91- 43.7 43.0 43.5---
2024-05-21 11:30 amSSW 13.6 15.5----29.91- 43.7 43.0 43.5---
2024-05-21 11:20 am S 11.7 15.5 4.6 165.7SSW29.89- 43.7 43.0 43.5---
2024-05-21 11:10 am S 11.7 15.5 4.6-5.7SSW29.89- 43.7- 43.5---
2024-05-21 11:00 am S 11.7 15.5----29.88-0.03 43.7 43.0 43.5---
2024-05-21 10:50 am S 13.6 15.5 4.6 105.5 S29.88- 43.7 43.0 43.5---
2024-05-21 10:40 am S 13.6 15.5 4.6-5.5 S29.89- 43.7 43.0 43.5---
2024-05-21 10:30 am S 13.6 17.5----29.90- 43.7 43.0 43.5---
2024-05-21 10:20 am S 13.6 17.5 4.6 105.4SSW29.91- 43.9 43.0 43.7---
2024-05-21 10:10 am S 13.6 19.4 4.6-5.4SSW29.92- 43.9 43.0 43.7---
2024-05-21 10:00 am S 13.6 17.5----29.91+0.00 43.9 43.0 43.7---
2024-05-21 09:50 am S 15.5 19.4 4.6 95.4SSW29.92- 43.9 43.0 43.7---
2024-05-21 09:40 am S 15.5 17.5----29.91- 44.1 43.0 43.9---
2024-05-21 09:30 am S 13.6 17.5----29.91- 44.1 43.0 43.9---
2024-05-21 09:20 am S 13.6 17.5 4.3 165.2SSE29.91- 44.1 43.0 43.9---
2024-05-21 09:10 am S 13.6 15.5 4.3-5.2SSE29.90- 44.1 43.0 43.9---
2024-05-21 09:00 am S 13.6 17.5----29.90-0.01 44.1 43.0 43.9---
2024-05-21 08:50 am S 13.6 17.5 4.6 105.4 S29.91- 44.1 43.0 43.9---
2024-05-21 08:40 am S 13.6 17.5 4.6-5.4 S29.91- 44.1 43.0 43.9---
2024-05-21 08:30 am S 13.6 17.5----29.91- 44.1 43.0 43.9---
2024-05-21 08:20 am S 13.6 17.5 4.3 155.4SSW29.91- 44.1 43.0 43.9---
2024-05-21 08:10 am S 13.6 15.5 4.3-5.4SSW29.91- 43.9 43.0 43.7---
2024-05-21 08:00 am S 11.7 17.5----29.91-0.02 43.9 43.0 43.7---
2024-05-21 07:50 am S 13.6 17.5 4.6 85.5SSW29.92- 43.7 43.0 43.5---
2024-05-21 07:40 am S 13.6 17.5----29.92- 43.9 43.0 43.7---
2024-05-21 07:30 am S 13.6 17.5----29.92- 43.7 43.0 43.5---
2024-05-21 07:20 am S 13.6 17.5 4.6 105.8SSW29.92- 43.7 43.0 43.5---
2024-05-21 07:10 am S 13.6 15.5 4.6-5.8SSW29.92- 43.7 43.0 43.5---
2024-05-21 07:00 am S 11.7 15.5----29.91-0.04 43.7 43.0 43.5---
2024-05-21 06:50 amSSE 13.6 19.4 4.3 95.6SSW29.92- 43.7 43.0 43.5---
2024-05-21 06:40 amSSE 13.6 17.5 4.3-5.6SSW29.91- 43.7 43.0 43.5---
2024-05-21 06:30 amSSE 13.6 17.5----29.91- 43.7 43.0 43.5---
2024-05-21 06:20 amSSE 13.6 15.5 4.3 175.7 S29.92- 43.7 43.0 43.5---
2024-05-21 06:10 amSSE 11.7 15.5 4.3-5.7 S29.92- 43.7 43.0 43.5---
2024-05-21 06:00 am S 13.6 17.5----29.92-0.04 43.7 43.0 43.5---
2024-05-21 05:50 amSSE 11.7 15.5 4.3 105.8SSW29.92- 43.7 43.0 43.5---
2024-05-21 05:40 am S 11.7 15.5 4.3-5.8SSW29.92- 43.7 43.0 43.5---
2024-05-21 05:30 am S 11.7 15.5----29.93- 43.7 43.0 43.5---
2024-05-21 05:20 am S 11.7 15.5 4.3 155.6 S29.93- 43.9 43.0 43.7---
2024-05-21 05:10 am S 11.7 15.5 4.3-5.6 S29.93- 43.9 43.0 43.7---
2024-05-21 05:00 am S 11.7 15.5----29.94-0.02 44.1 43.0 43.9---
2024-05-21 04:50 am S 11.7 13.6 4.3 145.7SSW29.94- 43.9 43.0 43.7---
2024-05-21 04:40 am S 11.7 13.6 4.3-5.7SSW29.95- 43.9 43.0 43.7---
2024-05-21 04:30 am S 11.7 15.5----29.95- 43.9 43.0 43.7---
2024-05-21 04:20 am S 11.7 15.5 4.3 105.8SSW29.95- 43.9 43.0 43.7---
2024-05-21 04:10 am S 11.7 13.6 4.3-5.8SSW29.95- 43.9 43.0 43.7---
2024-05-21 04:00 am S 11.7 13.6----29.95-0.01 43.7 43.0 43.5---
2024-05-21 03:50 am S 11.7 15.5 4.9 166.1 S29.95- 43.9 43.0 43.7---
2024-05-21 03:40 am S 11.7 15.5----29.95- 43.9 43.0 43.7---
2024-05-21 03:30 am S 13.6 15.5----29.96- 43.9 43.0 43.7---
2024-05-21 03:20 am S 11.7 15.5 4.3 105.7SSW29.96- 43.9 43.0 43.7---
2024-05-21 03:10 am S 11.7 13.6 4.3-5.7SSW29.96- 43.7 43.0 43.5---
2024-05-21 03:00 am S 9.7 13.6----29.96-0.01 43.9 43.0 43.7---
2024-05-21 02:50 am S 11.7 13.6 4.6 176.0SSW29.96- 43.7 43.0 43.5---
2024-05-21 02:40 am S 9.7 13.6 4.6-6.0SSW29.96- 43.7 43.0 43.5---
2024-05-21 02:30 am S 11.7 13.6----29.96- 43.7 43.0 43.5---
2024-05-21 02:20 am S 9.7 13.6 4.6 165.9SSW29.97- 43.7 43.0 43.5---
2024-05-21 02:10 am S 9.7 11.7 4.6-5.9SSW29.96- 43.7 43.0 43.5---
2024-05-21 02:00 am S 9.7 13.6----29.96-0.01 43.7 43.0 43.5---
2024-05-21 01:50 am S 9.7 13.6 4.6 176.0SSE29.96- 43.7 43.0 43.5---
2024-05-21 01:40 am S 9.7 13.6 4.6-6.0SSE29.96- 43.7 43.0 43.5---
2024-05-21 01:30 am S 9.7 13.6----29.96- 43.7 43.0 43.5---
2024-05-21 01:20 am S 9.7 13.6 4.6 105.7 S29.97- 43.7 43.0 43.5---
2024-05-21 01:10 am S 9.7 11.7 4.6-5.7 S29.97- 43.7 43.0 43.5---
2024-05-21 01:00 am S 9.7 11.7----29.96+0.00 43.7 43.0 43.5---
2024-05-21 12:50 am S 9.7 13.6 4.6 105.8SSW29.97- 43.5 43.0 43.3---
2024-05-21 12:40 am S 9.7 13.6 4.6-5.8SSW29.97- 43.5 43.0 43.3---
2024-05-21 12:30 am S 9.7 13.6----29.97- 43.5 43.0 43.3---
2024-05-21 12:20 am S 11.7 15.5 4.6 55.4 S29.97- 43.5 43.0 43.3---
2024-05-21 12:10 am S 11.7 15.5 4.6-5.4 S29.97- 43.5 42.8 43.3---
2024-05-21 12:00 am S 11.7 15.5----29.97+0.01 43.5 42.8 43.3---
2024-05-20 11:50 pm S 11.7 15.5 4.6 105.5 S29.97- 43.5 42.8 43.3---
2024-05-20 11:40 pm S 13.6 15.5 4.6-5.5 S29.98- 43.5 42.8 43.3---
2024-05-20 11:30 pm S 13.6 15.5----29.97- 43.5 42.8 43.3---
2024-05-20 11:20 pm S 11.7 15.5 4.9 175.5 S29.97- 43.5 42.8 43.3---
2024-05-20 11:10 pm S 11.7 15.5 4.9-5.5 S29.97- 43.5 42.8 43.3---
2024-05-20 11:00 pm S 11.7 15.5----29.97-0.02 43.3- 43.2---
2024-05-20 10:50 pm S 13.6 15.5 4.9 175.5SSW29.97- 43.3 42.8 43.2---

Detailed Wave Summary
for 46078 as of
(11:10 pm AKDT on 05/21/2024)
0710 GMT on 05/22/2024:

These wave data are displayed in rounded times.

     

Click on the graph icon in the table below to see a time series plot of the last five days of that observation.

5-day plot - Significant Wave Height Significant Wave Height (WVHT): 4.6 ft
5-day plot - Average Wave Period Average Wave Period (APD): 5.7 sec
Previous observations
TIME
(AKDT)
5-day plot - Wave Height
WVHT
ft
5-day plot - Swell Height
SwH
ft
5-day plot - Swell Period
SwP
sec
5-day plot - Swell Direction
SwD
 
5-day plot - Wind Wave Height
WWH
ft
5-day plot - Wind Wave Period
WWP
sec
5-day plot - Wind Wave Direction
WWD
 
5-day plot - Wave Steepness
STEEPNESS
 
5-day plot - Average Wave Period
APD
sec
2024-05-21 10:40 pm 4.9------ N/A 6.0
2024-05-21 10:10 pm 4.9------ N/A 6.1
2024-05-21 09:40 pm 4.9------ N/A 6.2
2024-05-21 09:10 pm 4.9------ N/A 6.1
2024-05-21 08:40 pm 4.6------ N/A 6.2
2024-05-21 08:10 pm 4.6------ N/A 6.3
2024-05-21 07:40 pm 4.6------ N/A 6.3
2024-05-21 07:10 pm 4.6------ N/A 6.5
2024-05-21 06:40 pm 4.6------ N/A 6.4
2024-05-21 06:10 pm 4.3------ N/A 6.0
2024-05-21 05:40 pm 4.6------ N/A 6.2
2024-05-21 05:10 pm 4.6------ N/A 6.1
2024-05-21 04:40 pm 4.6------ N/A 6.1
2024-05-21 04:10 pm 4.6------ N/A 6.2
2024-05-21 03:40 pm 4.6------ N/A 5.9
2024-05-21 03:10 pm 4.6------ N/A 6.0
2024-05-21 02:40 pm 4.3------ N/A 5.9
2024-05-21 02:10 pm 4.3------ N/A 5.8
2024-05-21 01:40 pm 4.6------ N/A 6.0
2024-05-21 01:10 pm 4.6------ N/A 5.9
2024-05-21 12:40 pm 4.3------ N/A 5.6
2024-05-21 12:10 pm 4.6------ N/A 5.7
2024-05-21 11:40 am 4.6------ N/A 5.6
2024-05-21 11:10 am 4.6------ N/A 5.7
2024-05-21 10:40 am 4.6------ N/A 5.5
2024-05-21 10:10 am 4.6------ N/A 5.4
2024-05-21 09:40 am 4.6------ N/A 5.4
2024-05-21 09:10 am 4.3------ N/A 5.2
2024-05-21 08:40 am 4.6------ N/A 5.4
2024-05-21 08:10 am 4.3------ N/A 5.4
2024-05-21 07:40 am 4.6------ AVERAGE 5.5
2024-05-21 07:10 am 4.6------ N/A 5.8
2024-05-21 06:40 am 4.3------ N/A 5.6
2024-05-21 06:10 am 4.3------ N/A 5.7
2024-05-21 05:40 am 4.3------ N/A 5.8
2024-05-21 05:10 am 4.3------ N/A 5.6
2024-05-21 04:40 am 4.3------ N/A 5.7
2024-05-21 04:10 am 4.3------ N/A 5.8
2024-05-21 03:40 am 4.9------ N/A 6.1
2024-05-21 03:10 am 4.3------ N/A 5.7
2024-05-21 02:40 am 4.6------ N/A 6.0
2024-05-21 02:10 am 4.6------ N/A 5.9
2024-05-21 01:40 am 4.6------ N/A 6.0
2024-05-21 01:10 am 4.6------ N/A 5.7
2024-05-21 12:40 am 4.6------ N/A 5.8
2024-05-21 12:10 am 4.6------VERY_STEEP 5.4
2024-05-20 11:40 pm 4.6------ N/A 5.5
2024-05-20 11:10 pm 4.9------ N/A 5.5

Plot of wave energy versus frequency (and period)